COSMOS 2491 DEB, 57560

Orbit data source: Space-Track

COSMOS 2491 DEB, 57560 is space debris in LEO originally from a launch on Wed, 25 Dec 2013 UTC launched from the Plesetsk Missile And Space Complex (PKMTR). Debris objects in space refer to the collection of defunct objects orbiting the Earth. Examples of debris include non-operational satellites, rocket bodies, and fragments generated from explosions, collisions, or faulty payload assembly.

Loading next visibility...
Identifier
57560, 2013-076AX
Orbit
LEO
Country
Flag of CISCIS
Related business
Manufacturer
TsNIIKhM
Mission
Spacecraft
Bus & Motor
Unknown
Mass
Unknown
Launch date (UTC)
2013-12-25 (12 years ago)
Launch vehicle
Unknown
Launch site
Plesetsk Missile And Space Complex (PKMTR)
Object type
Payload
Rocket body
Debris
Shape & HBR
Unknown shape, 0.1 m
Radar Cross Section
Small (<0.1 m²)

Expand to show TLE details & history
Last TLE update: 5 days ago

TLE from 5 days ago
0 COSMOS 2491 DEB
1 57560U 13076AX  26116.47917819  .00002779  00000-0  16761-1 0  9999
2 57560  82.4714 187.1219 0081914 130.6031 230.2220 12.55352572135701
Epoch: 2026-04-26T11:30Z
TLE epoch observation values (Epoch: 2026-04-26T11:30:00.995Z)
Latitude
-0.00004°
Longitude
160.13514°
Altitude
1,486.204 km
Speed
7.102 km/s
True Right ascension
12h 28m 29s
True Declination
0° 00' 00"
Sunlit
Object was in full shadow at epoch
Visualization orbit readout
Latitude
Unknown
Longitude
Unknown
Altitude
Unknown
Speed
Unknown
Apparent Right ascension
Unknown
Apparent Declination
Unknown
Sunlit
N/A
Visualization observer readout
Local Sidereal Time
16:57:51
Azimuth
Unknown
Elevation
Unknown
Doppler factor
Unknown
Orbital elements
Apogee altitude
1,503.558 km
Perigee altitude
1,375.483 km
Semi-major axis
7,817.657 km
Eccentricity
0.00819
Inclination
82.4714°
RAAN
187.1219°
Arg. of periapsis
130.6031°
True anomaly
229.50532°
Mean anomaly
230.222°
Eccentric anomaly
229.86319°
Mean motion
3.13999 °/min
Orbital period
114.65 mins
BSTAR
0.016761
Loading maneuver chart data...
Computing Atmospheric mass density...
Loading historical data...
Loading historical data...
Loading historical data...
Loading historical data...
Loading historical data...
Loading historical data...
Loading historical data...

Documentation

Showing up to 5 results
|